Location: R�serve Fauniques des Laurentides
(47.3100°N, 71.1900°W)
Time: 17:31:54
(UTC-04:00)

Amateur Radio Satellites - All Passes

Search period start: 17 August 2017 17:01
Search period end: 18 August 2017 17:01
Location: R�serve Fauniques des Laurentides, 47.3100°N, 71.1900°W

Satellite Date Start Highest point End Downlink Frequencies (MHz)
Time Altitude Azimuth
NUDT-PHONESAT 17 Aug 17:12:00 17:14:40 19° 65° (ENE) 17:17:21 437.300
XW-2C 17 Aug 17:19:04 17:22:23 31° 69° (ENE) 17:25:44 145.795 - 145.815
KKS-1 17 Aug 17:22:27 17:26:38 38° 98° (E) 17:30:46 437.445
XW-2F 17 Aug 17:34:13 17:37:46 42° 71° (ENE) 17:41:21 145.980 - 146.000
DOVE 4 17 Aug 17:43:58 17:49:10 54° 261° (W) 17:54:18 437.250
Tancredo 1 17 Aug 17:51:18 17:52:34 12° 225° (SW) 17:53:49 437.200
HO-68 17 Aug 17:51:57 17:58:17 36° 59° (ENE) 18:04:39 435.675
ISS 17 Aug 17:53:26 17:56:31 39° 215° (SW) 17:59:35 437.550
CUTE 1.7 + AOD 2 17 Aug 18:02:33 18:05:43 21° 64° (ENE) 18:08:54 437.475
BEESAT 17 Aug 18:04:06 18:05:44 12° 306° (NW) 18:07:23 436.000
KAITUO 1B 17 Aug 18:05:53 18:09:35 82° 75° (ENE) 18:13:20 145.475/437.950
RS-15 17 Aug 18:06:01 18:17:20 39° 20° (NNE) 18:28:11 29.354- 29.394
nSIGHT-1 17 Aug 18:06:55 18:09:48 29° 217° (SW) 18:12:40 .
STARS 17 Aug 18:11:56 18:16:14 53° 101° (E) 18:20:29 437.465
LilacSat-2 17 Aug 18:13:47 18:17:30 57° 260° (W) 18:21:15 437.200
CUTE-I 17 Aug 18:16:18 18:21:40 78° 256° (WSW) 18:27:04 437.470
AAUSAT CUBESAT 2 17 Aug 18:22:07 18:23:03 11° 57° (ENE) 18:23:58 437.432
XW-2D 17 Aug 18:23:02 18:26:38 46° 261° (W) 18:30:18 145.860 - 145.880
CUBESAT XI-V 17 Aug 18:29:52 18:33:42 25° 296° (WNW) 18:37:32 437.345
XW-2B 17 Aug 18:34:08 18:37:37 35° 263° (W) 18:41:07 145.730 - 145.750
YUBILEINY 17 Aug 18:35:57 18:43:07 27° 299° (WNW) 18:50:18 435.215
NUDT-PHONESAT 17 Aug 18:44:58 18:48:21 35° 263° (W) 18:51:45 437.300
AO-73 17 Aug 18:49:07 18:49:59 11° 58° (ENE) 18:50:50 145.935
O/OREOS (USA 219) 17 Aug 18:49:25 18:52:59 22° 51° (NE) 18:56:34 437.305
XW-2C 17 Aug 18:53:39 18:56:37 22° 266° (W) 18:59:37 145.795 - 145.815
SEEDS 17 Aug 18:56:48 19:00:49 45° 71° (ENE) 19:04:52 437.485
KKS-1 17 Aug 18:59:22 19:03:00 25° 296° (WNW) 19:06:37 437.445
STRAND 1 17 Aug 19:07:58 19:11:22 18° 90° (E) 19:14:46 437.568
CUBEBUG 2 17 Aug 19:08:46 19:12:56 51° 72° (ENE) 19:17:02 437.445
XW-2F 17 Aug 19:09:46 19:12:08 16° 269° (W) 19:14:30 145.980 - 146.000
UWE-3 17 Aug 19:10:00 19:13:44 32° 68° (ENE) 19:17:27 435.000/436.395/437.385
XW-2A 17 Aug 19:12:55 19:16:11 54° 74° (ENE) 19:19:27 145.665 - 145.685
Oscar 11 17 Aug 19:35:46 19:39:13 24° 65° (ENE) 19:42:42 .
CUTE 1.7 + AOD 2 17 Aug 19:37:14 19:41:16 44° 262° (W) 19:45:22 437.475
HO-68 17 Aug 19:38:47 19:45:46 55° 259° (W) 19:52:48 435.675
STARS 17 Aug 19:49:08 19:52:12 19° 299° (WNW) 19:55:15 437.465
AAUSAT CUBESAT 2 17 Aug 19:53:38 19:57:48 85° 73° (ENE) 20:02:00 437.432
ZACube-1 17 Aug 19:57:57 20:02:01 55° 72° (ENE) 20:06:05 437.345
CUTE-I 17 Aug 20:00:58 20:02:36 11° 275° (W) 20:04:14 437.470
DELFI C3 17 Aug 20:01:54 20:03:16 12° 59° (ENE) 20:04:38 145.870
RS-15 17 Aug 20:19:44 20:32:00 79° 50° (NE) 20:43:34 29.354- 29.394
AO-73 17 Aug 20:21:23 20:25:32 88° 75° (ENE) 20:29:42 145.935
O/OREOS (USA 219) 17 Aug 20:28:17 20:32:42 52° 250° (WSW) 20:37:07 437.305
SEEDS 17 Aug 20:33:44 20:36:44 19° 269° (W) 20:39:46 437.485
Max Valier Satellite 17 Aug 20:34:44 20:37:08 17° 64° (ENE) 20:39:33 145.860
STRAND 1 17 Aug 20:45:58 20:51:03 67° 288° (WNW) 20:56:06 437.568
UWE-3 17 Aug 20:46:39 20:50:14 26° 265° (W) 20:53:46 435.000/436.395/437.385
CUBEBUG 2 17 Aug 20:47:01 20:49:50 17° 269° (W) 20:52:38 437.445
Oscar 11 17 Aug 21:11:10 21:15:10 38° 263° (W) 21:19:13 .
DELFI C3 17 Aug 21:33:25 21:37:25 82° 257° (WSW) 21:41:27 145.870
EO-88 17 Aug 21:35:35 21:39:11 64° 75° (ENE) 21:42:49 145.990 - 145.960
ZACube-1 17 Aug 21:36:14 21:38:39 15° 270° (W) 21:41:05 437.345
ESTCUBE 1 17 Aug 21:40:39 21:42:02 11° 56° (NE) 21:43:25 437.505/2401.250
LO-87 17 Aug 21:46:22 21:48:05 13° 62° (ENE) 21:49:48 145.935 - 145.965
FO-29 17 Aug 21:55:12 22:00:51 48° 98° (E) 22:05:59 435.910
UNISAT 6 17 Aug 22:00:02 22:03:34 25° 94° (E) 22:07:08 437.425
Max Valier Satellite 17 Aug 22:07:14 22:10:41 40° 262° (W) 22:14:10 145.860
STRAND 1 17 Aug 22:27:39 22:29:17 11° 307° (NW) 22:30:54 437.568
RS-15 17 Aug 22:33:06 22:43:21 36° 255° (WSW) 22:53:12 29.354- 29.394
TIGRISAT 17 Aug 22:35:47 22:39:58 52° 100° (E) 22:44:11 435.000
SPROUT 17 Aug 22:39:39 22:40:43 11° 57° (ENE) 22:41:47 437.525
PCSat 17 Aug 23:08:44 23:13:33 34° 112° (ESE) 23:18:24 145.827
PRISM 17 Aug 23:12:23 23:16:33 85° 284° (WNW) 23:20:40 437.425
EO-88 17 Aug 23:12:42 23:13:16 10° 272° (W) 23:13:51 145.990 - 145.960
ESTCUBE 1 17 Aug 23:13:33 23:18:03 79° 73° (ENE) 23:22:36 437.505/2401.250
LO-87 17 Aug 23:17:34 23:21:06 55° 260° (W) 23:24:38 145.935 - 145.965
QB50P2 17 Aug 23:35:35 23:38:11 16° 91° (E) 23:40:47 145.880/145.840
UNISAT 6 17 Aug 23:36:27 23:40:22 35° 291° (WNW) 23:44:18 437.425
VELOX 1 17 Aug 23:36:46 23:40:44 32° 67° (ENE) 23:44:44 145.980
EO-79 17 Aug 23:37:43 23:40:12 15° 90° (E) 23:42:40 145.935-145.965
FO-29 17 Aug 23:40:44 23:45:40 28° 300° (WNW) 23:50:13 435.910
AIST 2D 17 Aug 23:50:53 23:54:20 47° 99° (E) 23:57:46 435.315
DX 1 17 Aug 23:51:39 23:54:19 16° 60° (ENE) 23:57:01 434.975-435.025
SO-50 18 Aug 00:02:02 00:06:17 42° 120° (ESE) 00:10:33 436.795
DUCHIFAT 1 18 Aug 00:11:22 00:14:55 26° 95° (E) 00:18:27 145.980
SPROUT 18 Aug 00:11:38 00:15:54 84° 73° (ENE) 00:20:11 437.525
TIGRISAT 18 Aug 00:13:22 00:16:19 18° 298° (WNW) 00:19:17 435.000
BUGSAT 1 18 Aug 00:27:52 00:29:00 11° 88° (E) 00:30:08 437.445
M-CUBED/EXP-1 PRIME 18 Aug 00:29:49 00:34:22 77° 109° (ESE) 00:38:35 437.505
50 SAT 18 Aug 00:41:09 00:44:30 54° 73° (ENE) 00:47:52 437.505
YUBILEINY 18 Aug 00:49:07 00:51:37 11° 44° (NE) 00:54:06 435.215
PRISM 18 Aug 00:50:10 00:51:07 11° 303° (WNW) 00:52:04 437.425
PCSat 18 Aug 00:51:37 00:56:50 45° 312° (NW) 01:02:04 145.827
ESTCUBE 1 18 Aug 00:53:32 00:55:26 12° 272° (W) 00:57:20 437.505/2401.250
NANOSAT C BR1 18 Aug 00:53:57 00:58:09 84° 104° (ESE) 01:02:21 145.865
POLYITAN 1 18 Aug 00:55:12 00:59:25 85° 285° (WNW) 01:03:38 437.675
QB50P2 18 Aug 01:10:12 01:14:18 54° 289° (WNW) 01:18:25 145.880/145.840
UKube-1 18 Aug 01:11:28 01:15:44 61° 72° (ENE) 01:20:02 .
EO-79 18 Aug 01:12:11 01:16:19 57° 288° (WNW) 01:20:25 145.935-145.965
VELOX 1 18 Aug 01:13:16 01:17:10 29° 264° (W) 01:21:06 145.980
AIST 2D 18 Aug 01:25:13 01:27:10 14° 297° (WNW) 01:29:08 435.315
DX 1 18 Aug 01:25:40 01:30:01 66° 257° (WSW) 01:34:24 434.975-435.025
SO-50 18 Aug 01:42:47 01:46:51 32° 319° (NW) 01:50:56 436.795
DUCHIFAT 1 18 Aug 01:46:53 01:50:36 31° 292° (WNW) 01:54:18 145.980
SPROUT 18 Aug 01:51:29 01:52:23 11° 273° (W) 01:53:17 437.525
Oscar 19 18 Aug 01:53:41 01:58:38 41° 98° (E) 02:03:31 437.125/150
BEESAT 18 Aug 01:56:45 02:00:35 25° 63° (ENE) 02:04:25 436.000
BUGSAT 1 18 Aug 02:00:50 02:04:51 72° 286° (WNW) 02:08:51 437.445
M-CUBED/EXP-1 PRIME 18 Aug 02:05:22 02:08:08 16° 308° (NW) 02:10:49 437.505
MOZHAYETS 4 18 Aug 02:11:21 02:15:05 26° 64° (ENE) 02:18:51
50 SAT 18 Aug 02:16:37 02:17:30 11° 270° (W) 02:18:25 437.505
ITUPSAT 1 18 Aug 02:27:52 02:32:22 45° 69° (ENE) 02:36:54 437.325
NANOSAT C BR1 18 Aug 02:31:37 02:33:14 12° 302° (WNW) 02:34:52 145.865
POLYITAN 1 18 Aug 02:33:28 02:34:30 11° 303° (WNW) 02:35:32 437.675
PCSat 18 Aug 02:38:46 02:41:39 14° 335° (NNW) 02:44:33 145.827
Gurwin Techsat 1B 18 Aug 02:38:55 02:44:14 67° 102° (ESE) 02:49:31 435.225
YUBILEINY 18 Aug 02:42:53 02:51:15 47° 71° (ENE) 02:59:32 435.215
UKube-1 18 Aug 02:49:37 02:52:09 15° 269° (W) 02:54:42 .
NO-84 18 Aug 02:57:02 02:59:46 45° 141° (SE) 03:02:31 435.350 FM
ITAMSAT 1 18 Aug 03:07:01 03:09:59 15° 89° (E) 03:12:56 435.822/435.867
SO-50 18 Aug 03:27:17 03:28:42 11° 343° (NNW) 03:30:06 436.795
Oscar 19 18 Aug 03:33:17 03:37:49 31° 296° (WNW) 03:42:19 437.125/150
BEESAT 18 Aug 03:33:34 03:38:06 45° 261° (W) 03:42:42 436.000
MOZHAYETS 4 18 Aug 03:47:48 03:52:04 39° 263° (W) 03:56:22
CUBESAT XI-V 18 Aug 03:58:01 04:02:35 60° 72° (ENE) 04:07:13 437.345
AO-7 18 Aug 04:01:05 04:09:10 50° 101° (E) 04:17:08 .
ITUPSAT 1 18 Aug 04:06:34 04:10:24 24° 267° (W) 04:14:14 437.325
Gurwin Techsat 1B 18 Aug 04:19:49 04:23:41 21° 301° (WNW) 04:27:33 435.225
KKS-1 18 Aug 04:23:06 04:27:28 53° 71° (ENE) 04:31:50 437.445
NO-84 18 Aug 04:34:43 04:37:15 28° 340° (NNW) 04:39:49 435.350 FM
YUBILEINY 18 Aug 04:39:56 04:48:01 45° 273° (W) 04:56:04 435.215
ITAMSAT 1 18 Aug 04:44:52 04:50:04 79° 287° (WNW) 04:55:14 435.822/435.867
STARS 18 Aug 05:11:06 05:15:29 71° 74° (ENE) 05:19:53 437.465
AO-85 18 Aug 05:34:07 05:36:19 15° 112° (ESE) 05:38:31 145.980
CUBESAT XI-V 18 Aug 05:37:18 05:40:22 17° 270° (W) 05:43:28 437.345
DOVE 4 18 Aug 05:40:16 05:44:33 34° 95° (E) 05:48:34 437.250
LilacSat-2 18 Aug 05:45:15 05:46:58 13° 89° (E) 05:48:41 437.200
XW-2D 18 Aug 05:53:14 05:55:27 15° 90° (E) 05:57:40 145.860 - 145.880
AO-7 18 Aug 05:54:05 06:01:52 46° 302° (WNW) 06:09:36 .
KKS-1 18 Aug 06:01:15 06:04:20 18° 268° (W) 06:07:26 437.445
XW-2B 18 Aug 06:03:46 06:06:30 18° 92° (E) 06:09:14 145.730 - 145.750
BEESAT 3 18 Aug 06:05:13 06:09:02 45° 121° (ESE) 06:12:55 437.485
PCSat 18 Aug 06:10:13 06:13:34 16° 28° (NNE) 06:16:54 145.827
BEESAT 2 18 Aug 06:12:27 06:15:20 19° 113° (ESE) 06:18:16 435.950
NUDT-PHONESAT 18 Aug 06:12:28 06:14:58 17° 92° (E) 06:17:29 437.300
NO-84 18 Aug 06:13:12 06:15:19 18° 2° (N) 06:17:30 435.350 FM
XW-2C 18 Aug 06:22:10 06:25:34 29° 96° (E) 06:28:57 145.795 - 145.815
ITAMSAT 1 18 Aug 06:26:10 06:28:43 14° 306° (NW) 06:31:15 435.822/435.867
STRAND 1 18 Aug 06:26:27 06:31:04 35° 66° (ENE) 06:35:41 437.568
CUTE-I 18 Aug 06:30:21 06:35:09 33° 96° (E) 06:39:54 437.470
XW-2F 18 Aug 06:36:54 06:40:33 40° 98° (E) 06:44:10 145.980 - 146.000
STARS 18 Aug 06:50:07 06:52:19 13° 271° (W) 06:54:29 437.465
SO-50 18 Aug 06:50:08 06:53:33 20° 33° (NNE) 06:56:58 436.795
HO-68 18 Aug 07:03:16 07:09:06 26° 92° (E) 07:14:53 435.675
KAITUO 1B 18 Aug 07:07:35 07:11:24 75° 102° (ESE) 07:15:12 145.475/437.950
AO-85 18 Aug 07:12:20 07:16:13 62° 310° (NW) 07:20:08 145.980
LilacSat-2 18 Aug 07:17:48 07:21:37 59° 286° (WNW) 07:25:26 437.200
DOVE 4 18 Aug 07:18:05 07:22:09 29° 295° (WNW) 07:26:01 437.250
CUTE 1.7 + AOD 2 18 Aug 07:18:56 07:22:32 25° 94° (E) 07:26:06 437.475
XW-2D 18 Aug 07:26:12 07:29:55 49° 288° (WNW) 07:33:37 145.860 - 145.880
AAUSAT CUBESAT 2 18 Aug 07:34:47 07:35:57 11° 87° (E) 07:37:08 437.432
XW-2B 18 Aug 07:37:15 07:40:50 38° 289° (WNW) 07:44:25 145.730 - 145.750
BEESAT 3 18 Aug 07:43:21 07:46:47 26° 320° (NW) 07:50:15 437.485
NUDT-PHONESAT 18 Aug 07:45:31 07:49:03 40° 289° (WNW) 07:52:34 437.300
AO-7 18 Aug 07:48:45 07:52:34 14° 325° (NW) 07:56:23 .
BEESAT 2 18 Aug 07:48:49 07:52:45 52° 312° (NW) 07:56:44 435.950
NO-84 18 Aug 07:50:33 07:53:20 34° 23° (NNE) 07:56:16 435.350 FM
PCSat 18 Aug 07:52:49 07:58:10 56° 51° (NE) 08:03:30 145.827
XW-2C 18 Aug 07:56:29 07:59:38 24° 293° (WNW) 08:02:47 145.795 - 145.815
XW-2A 18 Aug 08:04:02 08:07:13 36° 98° (E) 08:10:23 145.665 - 145.685
STRAND 1 18 Aug 08:05:36 08:10:14 34° 264° (W) 08:14:54 437.568
AO-73 18 Aug 08:07:17 08:09:23 13° 89° (E) 08:11:29 145.935
FO-29 18 Aug 08:09:02 08:15:50 38° 64° (ENE) 08:22:04 435.910
CUTE-I 18 Aug 08:10:19 08:15:15 39° 294° (WNW) 08:20:08 437.470
XW-2F 18 Aug 08:11:42 08:14:24 19° 296° (WNW) 08:17:06 145.980 - 146.000
SEEDS 18 Aug 08:12:37 08:16:50 58° 100° (E) 08:21:02 437.485
SO-50 18 Aug 08:30:02 08:34:37 88° 226° (SW) 08:39:12 436.795
PRISM 18 Aug 08:31:44 08:33:34 13° 58° (ENE) 08:35:24 437.425
UWE-3 18 Aug 08:31:48 08:35:52 45° 99° (E) 08:39:58 435.000/436.395/437.385
CUBEBUG 2 18 Aug 08:32:20 08:36:30 77° 102° (ESE) 08:40:45 437.445
KAITUO 1B 18 Aug 08:43:39 08:44:50 11° 300° (WNW) 08:46:01 145.475/437.950
HO-68 18 Aug 08:50:17 08:57:24 70° 292° (WNW) 09:04:30 435.675
CUTE 1.7 + AOD 2 18 Aug 08:54:30 08:58:25 35° 292° (WNW) 09:02:19 437.475
Oscar 11 18 Aug 08:54:54 08:58:47 30° 95° (E) 09:02:39 .
AO-85 18 Aug 08:55:29 08:57:25 13° 332° (NNW) 08:59:23 145.980
UNISAT 6 18 Aug 09:01:42 09:05:34 32° 68° (ENE) 09:09:23 437.425
O/OREOS (USA 219) 18 Aug 09:07:35 09:09:07 12° 97° (E) 09:10:40 437.305
AAUSAT CUBESAT 2 18 Aug 09:07:45 09:11:58 78° 287° (WNW) 09:16:08 437.432
DELFI C3 18 Aug 09:09:52 09:10:30 10° 87° (E) 09:11:10 145.870
ZACube-1 18 Aug 09:18:38 09:22:54 79° 105° (ESE) 09:27:13 437.345
NO-84 18 Aug 09:27:50 09:30:45 39° 221° (SW) 09:33:54 435.350 FM
BEESAT 2 18 Aug 09:29:34 09:31:25 13° 333° (NNW) 09:33:16 435.950
Max Valier Satellite 18 Aug 09:34:50 09:36:54 14° 91° (E) 09:38:58 145.860
PCSat 18 Aug 09:36:47 09:41:15 26° 251° (WSW) 09:45:40 145.827
TIGRISAT 18 Aug 09:37:12 09:41:31 66° 73° (ENE) 09:45:46 435.000
XW-2A 18 Aug 09:37:32 09:39:41 16° 295° (WNW) 09:41:50 145.665 - 145.685
AO-73 18 Aug 09:41:50 09:46:02 67° 286° (WNW) 09:50:19 145.935
M-CUBED/EXP-1 PRIME 18 Aug 09:44:35 09:48:04 22° 56° (NE) 09:51:38 437.505
SEEDS 18 Aug 09:49:21 09:52:05 17° 298° (WNW) 09:54:49 437.485
FO-29 18 Aug 09:53:14 10:00:41 53° 261° (W) 10:07:31 435.910
PRISM 18 Aug 10:04:04 10:08:15 80° 258° (WSW) 10:12:27 437.425
UWE-3 18 Aug 10:08:58 10:12:03 20° 296° (WNW) 10:15:10 435.000/436.395/437.385
CUBEBUG 2 18 Aug 10:10:44 10:12:35 13° 300° (WNW) 10:14:26 437.445
SO-50 18 Aug 10:12:26 10:14:23 13° 251° (WSW) 10:16:20 436.795
NANOSAT C BR1 18 Aug 10:16:20 10:17:42 11° 58° (ENE) 10:19:05 145.865
POLYITAN 1 18 Aug 10:17:24 10:19:20 13° 59° (ENE) 10:21:16 437.675
Tancredo 1 18 Aug 10:18:56 10:21:15 21° 141° (SE) 10:23:34 437.200
AIST 2D 18 Aug 10:28:15 10:31:14 27° 69° (ENE) 10:34:15 435.315
Oscar 11 18 Aug 10:31:05 10:34:53 30° 293° (WNW) 10:38:40 .
QB50P2 18 Aug 10:31:06 10:34:04 19° 63° (ENE) 10:37:03 145.880/145.840
EO-79 18 Aug 10:33:03 10:35:55 18° 62° (ENE) 10:38:48 145.935-145.965
EO-88 18 Aug 10:34:35 10:38:13 53° 100° (E) 10:41:48 145.990 - 145.960
ISS 18 Aug 10:37:13 10:38:16 11° 133° (SE) 10:39:18 437.550
UNISAT 6 18 Aug 10:38:33 10:42:17 28° 265° (W) 10:46:01 437.425
HO-68 18 Aug 10:39:33 10:43:56 18° 313° (NW) 10:48:21 435.675
DELFI C3 18 Aug 10:41:48 10:45:48 76° 286° (WNW) 10:49:46 145.870
O/OREOS (USA 219) 18 Aug 10:43:21 10:47:49 83° 298° (WNW) 10:52:20 437.305
RS-15 18 Aug 10:47:11 10:57:43 36° 105° (ESE) 11:08:19 29.354- 29.394
nSIGHT-1 18 Aug 10:48:34 10:50:30 15° 136° (SE) 10:52:25 .
ZACube-1 18 Aug 10:56:41 10:58:37 13° 300° (WNW) 11:00:32 437.345
ESTCUBE 1 18 Aug 11:04:20 11:06:37 14° 88° (E) 11:08:53 437.505/2401.250
DUCHIFAT 1 18 Aug 11:05:56 11:09:33 30° 67° (ENE) 11:13:12 145.980
Max Valier Satellite 18 Aug 11:07:26 11:11:00 46° 288° (WNW) 11:14:34 145.860
TIGRISAT 18 Aug 11:16:28 11:18:39 14° 271° (W) 11:20:49 435.000
M-CUBED/EXP-1 PRIME 18 Aug 11:17:41 11:22:04 55° 254° (WSW) 11:26:40 437.505
BUGSAT 1 18 Aug 11:20:14 11:22:16 14° 60° (ENE) 11:24:19 437.445
Oscar 19 18 Aug 11:37:35 11:40:10 14° 54° (NE) 11:42:45 437.125/150
NANOSAT C BR1 18 Aug 11:48:34 11:52:46 89° 265° (W) 11:56:58 145.865
POLYITAN 1 18 Aug 11:50:20 11:54:32 78° 258° (WSW) 11:58:45 437.675
Tancredo 1 18 Aug 11:53:20 11:56:15 67° 339° (NNW) 11:59:10 437.200
SPROUT 18 Aug 11:56:18 11:57:34 11° 88° (E) 11:58:51 437.525
AIST 2D 18 Aug 12:01:44 12:04:26 21° 266° (W) 12:07:11 435.315
QB50P2 18 Aug 12:05:26 12:09:32 49° 260° (W) 12:13:38 145.880/145.840
EO-79 18 Aug 12:07:14 12:11:19 51° 260° (W) 12:15:27 145.935-145.965
EO-88 18 Aug 12:09:32 12:11:28 14° 298° (WNW) 12:13:23 145.990 - 145.960
ISS 18 Aug 12:10:57 12:14:11 63° 150° (SSE) 12:17:27 437.550
LO-87 18 Aug 12:14:32 12:18:04 70° 285° (WNW) 12:21:34 145.935 - 145.965
AO-85 18 Aug 12:21:05 12:22:11 11° 23° (NNE) 12:23:18 145.980
nSIGHT-1 18 Aug 12:23:11 12:26:27 80° 154° (SSE) 12:29:43 .
Gurwin Techsat 1B 18 Aug 12:24:54 12:29:02 24° 60° (ENE) 12:33:11 435.225
O/OREOS (USA 219) 18 Aug 12:25:41 12:27:59 14° 316° (NW) 12:30:18 437.305
ESTCUBE 1 18 Aug 12:39:23 12:43:57 74° 286° (WNW) 12:48:28 437.505/2401.250
DUCHIFAT 1 18 Aug 12:41:35 12:45:13 28° 265° (W) 12:48:51 145.980
BEESAT 3 18 Aug 12:42:17 12:44:43 15° 31° (NNE) 12:47:08 437.485
BEESAT 2 18 Aug 12:50:19 12:50:50 10° 22° (NNE) 12:51:21 435.950
BUGSAT 1 18 Aug 12:53:02 12:57:08 70° 258° (WSW) 13:01:12 437.445
RS-15 18 Aug 12:56:50 13:09:11 80° 310° (NW) 13:21:35 29.354- 29.394
VELOX 1 18 Aug 12:59:22 13:03:33 40° 98° (E) 13:07:42 145.980
DX 1 18 Aug 13:11:35 13:14:26 17° 91° (E) 13:17:15 434.975-435.025
AO-7 18 Aug 13:13:26 13:19:50 25° 47° (NE) 13:26:12 .
Oscar 19 18 Aug 13:13:31 13:18:40 81° 73° (ENE) 13:23:52 437.125/150
Tancredo 1 18 Aug 13:29:05 13:31:47 32° 358° (N) 13:34:28 437.200
SPROUT 18 Aug 13:29:46 13:34:01 79° 286° (WNW) 13:38:15 437.525
50 SAT 18 Aug 13:32:18 13:35:24 32° 98° (E) 13:38:29 437.505
ISS 18 Aug 13:47:39 13:50:47 42° 349° (N) 13:53:57 437.550
AO-85 18 Aug 13:59:42 14:03:41 39° 45° (NE) 14:07:53 145.980
nSIGHT-1 18 Aug 13:59:56 14:03:02 39° 353° (N) 14:06:08 .
Gurwin Techsat 1B 18 Aug 14:03:21 14:08:36 58° 259° (W) 14:13:52 435.225
ESTCUBE 1 18 Aug 14:18:55 14:19:55 11° 305° (NW) 14:20:55 437.505/2401.250
BEESAT 3 18 Aug 14:18:57 14:22:59 75° 53° (NE) 14:26:56 437.485
BEESAT 2 18 Aug 14:25:58 14:29:46 35° 44° (NE) 14:33:30 435.950
ITAMSAT 1 18 Aug 14:27:21 14:31:58 33° 64° (ENE) 14:36:36 435.822/435.867
UKube-1 18 Aug 14:31:01 14:35:21 71° 103° (ESE) 14:39:38 .
VELOX 1 18 Aug 14:36:13 14:39:48 24° 296° (WNW) 14:43:22 145.980
DX 1 18 Aug 14:46:41 14:50:58 55° 289° (WNW) 14:55:12 434.975-435.025
Oscar 19 18 Aug 14:55:48 14:58:38 15° 272° (W) 15:01:29 437.125/150
AO-7 18 Aug 15:03:09 15:11:32 85° 69° (ENE) 15:19:58 .
Tancredo 1 18 Aug 15:04:29 15:07:21 53° 18° (NNE) 15:10:13 437.200
50 SAT 18 Aug 15:05:32 15:07:52 17° 295° (WNW) 15:10:10 437.505
SPROUT 18 Aug 15:08:48 15:09:10 10° 304° (WNW) 15:09:33 437.525
RS-15 18 Aug 15:12:27 15:23:50 40° 339° (NNW) 15:35:05 29.354- 29.394
ISS 18 Aug 15:24:33 15:27:42 41° 10° (N) 15:30:49 437.550
BEESAT 18 Aug 15:30:13 15:34:35 35° 97° (E) 15:38:56 436.000
nSIGHT-1 18 Aug 15:36:41 15:39:50 45° 13° (NNE) 15:42:59 .
MOZHAYETS 4 18 Aug 15:39:10 15:43:27 37° 97° (E) 15:47:43
AO-85 18 Aug 15:40:13 15:44:00 30° 242° (WSW) 15:48:00 145.980
YUBILEINY 18 Aug 15:47:42 15:55:58 48° 88° (E) 16:04:13 435.215
CUBESAT XI-V 18 Aug 15:53:15 15:55:06 12° 87° (E) 15:56:57 437.345
BEESAT 3 18 Aug 15:58:10 15:59:58 13° 250° (WSW) 16:01:45 437.485
ITUPSAT 1 18 Aug 16:02:24 16:07:11 68° 103° (ESE) 16:11:56 437.325
BEESAT 2 18 Aug 16:03:52 16:07:26 30° 243° (WSW) 16:10:58 435.950
ITAMSAT 1 18 Aug 16:06:33 16:11:22 38° 263° (W) 16:16:13 435.822/435.867
UKube-1 18 Aug 16:08:24 16:10:50 15° 301° (WNW) 16:13:16 .
CUTE-I 18 Aug 16:18:52 16:21:17 13° 53° (NE) 16:23:42 437.470
LilacSat-2 18 Aug 16:31:24 16:32:18 11° 59° (ENE) 16:33:11 437.200
XW-2D 18 Aug 16:38:24 16:39:58 12° 61° (ENE) 16:41:32 145.860 - 145.880
Tancredo 1 18 Aug 16:39:52 16:42:28 29° 216° (SW) 16:45:03 437.200
DOVE 4 18 Aug 16:47:26 16:52:33 52° 71° (ENE) 16:57:35 437.250
XW-2B 18 Aug 16:48:39 16:50:51 15° 62° (ENE) 16:53:03 145.730 - 145.750
NUDT-PHONESAT 18 Aug 16:55:31 16:57:19 13° 62° (ENE) 16:59:06 437.300
